Location: D�derode
(51.8092°N, 10.1065°E)
Time: 06:45:25
(UTC+00:00)

Cosmos 2333 Rocket - Pass Details

Date: 01 December 2020
Orbit: 840 x 861 km, 70.8° (Epoch: 23 January)

Event Time Altitude Azimuth Distance (km) Brightness Sun altitude
Rises 17:23:34 0° 276° (W) 3,405 6.7 -19.3°
Reaches altitude 10° 17:27:04 10° 298° (WNW) 2,469 5.3 -19.8°
Maximum altitude 17:30:27 16° 335° (NNW) 2,081 4.4 -20.3°
Drops below altitude 10° 17:33:50 10° 12° (NNE) 2,470 4.4 -20.9°
Enters shadow 17:34:08 - 15° (NNE) 2,534 4.4 -20.9°
